Time,TemperatureF,DewpointF,PressureIn,WindDirection,WindDirectionDegrees,WindSpeedMPH,WindSpeedGustMPH,Humidity,HourlyPrecipIn,Conditions,Clouds,dailyrainin,SoftwareType,DateUTC
2013-01-01 00:00:00,39.0,-99.9,29.28,North,-999,-999.0,-999.0,-999,-99.99,,,-99.99,,2013-01-01 00:00:00,
2013-01-01 00:42:00,39.0,-99.9,29.28,North,-999,-999.0,-999.0,-999,-99.99,,,-99.99,,2013-01-01 00:42:00,
2013-01-01 00:53:00,39.0,-99.9,29.28,North,-999,-999.0,-999.0,-999,-99.99,,,-99.99,,2013-01-01 00:53:00,
2013-01-01 01:00:00,40.0,-99.9,29.28,North,-999,-999.0,-999.0,-999,-99.99,,,-99.99,,2013-01-01 01:00:00,
2013-01-01 01:43:00,40.0,-99.9,29.28,North,-999,-999.0,-999.0,-999,-99.99,,,-99.99,,2013-01-01 01:43:00,
2013-01-01 01:53:00,40.0,-99.9,29.28,North,-999,-999.0,-999.0,-999,-99.99,,,-99.99,,2013-01-01 01:53:00,
2013-01-01 02:00:00,39.0,-99.9,29.29,North,-999,-999.0,-999.0,-999,-99.99,,,-99.99,,2013-01-01 02:00:00,
2013-01-01 02:43:00,39.0,-99.9,29.29,North,-999,-999.0,-999.0,-999,-99.99,,,-99.99,,2013-01-01 02:43:00,
2013-01-01 02:53:00,39.0,-99.9,29.29,North,-999,-999.0,-999.0,-999,-99.99,,,-99.99,,2013-01-01 02:53:00,
2013-01-01 03:00:00,39.0,34.0,29.30,North,-999,-999.0,-999.0,82,-99.99,,,-99.99,,2013-01-01 03:00:00,
2013-01-01 03:42:00,39.0,34.0,29.30,North,-999,-999.0,-999.0,82,-99.99,,,-99.99,,2013-01-01 03:42:00,
2013-01-01 03:52:00,39.0,34.0,29.30,North,-999,-999.0,-999.0,82,-99.99,,,-99.99,,2013-01-01 03:52:00,
2013-01-01 04:00:00,39.0,34.0,29.31,North,-999,-999.0,-999.0,81,-99.99,,,-99.99,,2013-01-01 04:00:00,
2013-01-01 04:42:00,39.0,34.0,29.31,North,-999,-999.0,-999.0,81,-99.99,,,-99.99,,2013-01-01 04:42:00,
2013-01-01 04:52:00,39.0,34.0,29.31,North,-999,-999.0,-999.0,81,-99.99,,,-99.99,,2013-01-01 04:52:00,
2013-01-01 05:00:00,40.0,34.0,29.32,North,-999,-999.0,-999.0,80,-99.99,,,-99.99,,2013-01-01 05:00:00,
2013-01-01 05:42:00,40.0,34.0,29.32,North,-999,-999.0,-999.0,80,-99.99,,,-99.99,,2013-01-01 05:42:00,
2013-01-01 05:52:00,40.0,34.0,29.32,North,-999,-999.0,-999.0,80,-99.99,,,-99.99,,2013-01-01 05:52:00,
2013-01-01 06:00:00,40.0,35.0,29.34,North,-999,-999.0,-999.0,83,-99.99,,,-99.99,,2013-01-01 06:00:00,
2013-01-01 06:42:00,40.0,35.0,29.34,North,-999,-999.0,-999.0,83,-99.99,,,-99.99,,2013-01-01 06:42:00,
2013-01-01 06:52:00,40.0,35.0,29.34,North,-999,-999.0,-999.0,83,-99.99,,,-99.99,,2013-01-01 06:52:00,
2013-01-01 07:00:00,41.0,35.0,29.35,North,-999,-999.0,-999.0,79,-99.99,,,-99.99,,2013-01-01 07:00:00,
2013-01-01 07:42:00,41.0,35.0,29.35,North,-999,-999.0,-999.0,79,-99.99,,,-99.99,,2013-01-01 07:42:00,
2013-01-01 07:52:00,41.0,35.0,29.35,North,-999,-999.0,-999.0,79,-99.99,,,-99.99,,2013-01-01 07:52:00,
2013-01-01 08:00:00,41.0,36.0,29.38,North,-999,-999.0,-999.0,82,-99.99,,,-99.99,,2013-01-01 08:00:00,
2013-01-01 08:42:00,41.0,36.0,29.38,North,-999,-999.0,-999.0,82,-99.99,,,-99.99,,2013-01-01 08:42:00,
2013-01-01 08:53:00,41.0,36.0,29.38,North,-999,-999.0,-999.0,82,-99.99,,,-99.99,,2013-01-01 08:53:00,
2013-01-01 09:00:00,41.0,36.0,29.41,North,-999,-999.0,-999.0,82,-99.99,,,-99.99,,2013-01-01 09:00:00,
2013-01-01 09:42:00,41.0,36.0,29.41,North,-999,-999.0,-999.0,82,-99.99,,,-99.99,,2013-01-01 09:42:00,
2013-01-01 09:52:00,41.0,36.0,29.41,North,-999,-999.0,-999.0,82,-99.99,,,-99.99,,2013-01-01 09:52:00,
2013-01-01 12:00:00,44.0,37.0,29.48,North,-999,-999.0,-999.0,77,-99.99,,,-99.99,,2013-01-01 12:00:00,
2013-01-01 12:42:00,44.0,37.0,29.48,North,-999,-999.0,-999.0,77,-99.99,,,-99.99,,2013-01-01 12:42:00,
2013-01-01 12:52:00,44.0,37.0,29.48,North,-999,-999.0,-999.0,77,-99.99,,,-99.99,,2013-01-01 12:52:00,
2013-01-01 13:00:00,45.0,37.0,29.51,North,-999,-999.0,-999.0,72,-99.99,,,-99.99,,2013-01-01 13:00:00,
2013-01-01 13:42:00,45.0,37.0,29.51,North,-999,-999.0,-999.0,72,-99.99,,,-99.99,,2013-01-01 13:42:00,
2013-01-01 13:52:00,45.0,37.0,29.51,North,-999,-999.0,-999.0,72,-99.99,,,-99.99,,2013-01-01 13:52:00,
2013-01-01 14:00:00,45.0,37.0,29.53,North,-999,-999.0,-999.0,73,-99.99,,,-99.99,,2013-01-01 14:00:00,
2013-01-01 14:42:00,45.0,37.0,29.53,North,-999,-999.0,-999.0,73,-99.99,,,-99.99,,2013-01-01 14:42:00,
2013-01-01 14:52:00,45.0,37.0,29.53,North,-999,-999.0,-999.0,73,-99.99,,,-99.99,,2013-01-01 14:52:00,
2013-01-01 15:00:00,45.0,38.0,29.57,North,-999,-999.0,-999.0,75,-99.99,,,-99.99,,2013-01-01 15:00:00,
2013-01-01 15:42:00,45.0,38.0,29.57,North,-999,-999.0,-999.0,75,-99.99,,,-99.99,,2013-01-01 15:42:00,
2013-01-01 15:52:00,45.0,38.0,29.57,North,-999,-999.0,-999.0,75,-99.99,,,-99.99,,2013-01-01 15:52:00,
2013-01-01 16:00:00,45.0,38.0,29.62,North,-999,-999.0,-999.0,76,-99.99,,,-99.99,,2013-01-01 16:00:00,
2013-01-01 16:42:00,45.0,38.0,29.62,North,-999,-999.0,-999.0,76,-99.99,,,-99.99,,2013-01-01 16:42:00,
2013-01-01 16:52:00,45.0,38.0,29.62,North,-999,-999.0,-999.0,76,-99.99,,,-99.99,,2013-01-01 16:52:00,
2013-01-01 17:00:00,44.0,38.0,29.66,North,-999,-999.0,-999.0,77,-99.99,,,-99.99,,2013-01-01 17:00:00,
2013-01-01 17:42:00,44.0,38.0,29.66,North,-999,-999.0,-999.0,77,-99.99,,,-99.99,,2013-01-01 17:42:00,
2013-01-01 17:52:00,44.0,38.0,29.66,North,-999,-999.0,-999.0,77,-99.99,,,-99.99,,2013-01-01 17:52:00,
2013-01-01 18:00:00,44.0,38.0,29.70,North,-999,-999.0,-999.0,78,-99.99,,,-99.99,,2013-01-01 18:00:00,
2013-01-01 18:42:00,44.0,38.0,29.70,North,-999,-999.0,-999.0,78,-99.99,,,-99.99,,2013-01-01 18:42:00,
2013-01-01 18:52:00,44.0,38.0,29.70,North,-999,-999.0,-999.0,78,-99.99,,,-99.99,,2013-01-01 18:52:00,
2013-01-01 19:00:00,43.0,37.0,29.75,North,-999,-999.0,-999.0,79,-99.99,,,-99.99,,2013-01-01 19:00:00,
2013-01-01 19:42:00,43.0,37.0,29.75,North,-999,-999.0,-999.0,79,-99.99,,,-99.99,,2013-01-01 19:42:00,
2013-01-01 19:52:00,43.0,37.0,29.75,North,-999,-999.0,-999.0,79,-99.99,,,-99.99,,2013-01-01 19:52:00,
2013-01-01 20:00:00,42.0,36.0,29.78,North,-999,-999.0,-999.0,79,-99.99,,,-99.99,,2013-01-01 20:00:00,
2013-01-01 20:42:00,42.0,36.0,29.78,North,-999,-999.0,-999.0,79,-99.99,,,-99.99,,2013-01-01 20:42:00,
2013-01-01 20:52:00,42.0,36.0,29.78,North,-999,-999.0,-999.0,79,-99.99,,,-99.99,,2013-01-01 20:52:00,
2013-01-01 21:00:00,43.0,37.0,29.81,North,-999,-999.0,-999.0,79,-99.99,,,-99.99,,2013-01-01 21:00:00,
2013-01-01 21:42:00,43.0,37.0,29.81,North,-999,-999.0,-999.0,79,-99.99,,,-99.99,,2013-01-01 21:42:00,
2013-01-01 21:52:00,43.0,37.0,29.81,North,-999,-999.0,-999.0,79,-99.99,,,-99.99,,2013-01-01 21:52:00,
2013-01-01 22:00:00,42.0,37.0,29.84,North,-999,-999.0,-999.0,81,-99.99,,,-99.99,,2013-01-01 22:00:00,
2013-01-01 22:32:00,42.0,37.0,29.84,North,-999,-999.0,-999.0,81,-99.99,,,-99.99,,2013-01-01 22:32:00,
2013-01-01 22:42:00,42.0,37.0,29.84,North,-999,-999.0,-999.0,81,-99.99,,,-99.99,,2013-01-01 22:42:00,
2013-01-01 22:52:00,42.0,37.0,29.84,North,-999,-999.0,-999.0,81,-99.99,,,-99.99,,2013-01-01 22:52:00,
2013-01-01 23:00:00,43.0,37.0,29.88,North,-999,-999.0,-999.0,79,-99.99,,,-99.99,,2013-01-01 23:00:00,
2013-01-01 23:32:00,43.0,37.0,29.88,North,-999,-999.0,-999.0,79,-99.99,,,-99.99,,2013-01-01 23:32:00,
2013-01-01 23:42:00,43.0,37.0,29.88,North,-999,-999.0,-999.0,79,-99.99,,,-99.99,,2013-01-01 23:42:00,
2013-01-01 23:52:00,43.0,37.0,29.88,North,-999,-999.0,-999.0,79,-99.99,,,-99.99,,2013-01-01 23:52:00,